This is the latest recevied weather packets stored in our database for station/object KO5MO-11. If no packets are shown the sender has not sent any weather packets the latest 10 day(s).
| Time | Temp. | Humidity | Pressure | Rain* | Wind** | Luminosity | Snow |
|---|---|---|---|---|---|---|---|
| 1777434526 | 25° C | 35% | 1012 hPa | - | - | - | - |
| 1777433926 | 26.11° C | 32% | 1012 hPa | - | - | - | - |
| 1777433326 | 26.11° C | 34% | 1011.9 hPa | - | - | - | - |
| 1777432726 | 25° C | 33% | 1011.7 hPa | - | - | - | - |
| 1777432126 | 26.11° C | 33% | 1011.5 hPa | - | - | - | - |
| 1777431526 | 26.11° C | 35% | 1011.6 hPa | - | - | - | - |
| 1777430926 | 24.44° C | 34% | 1011.4 hPa | - | - | - | - |
| 1777430326 | 25° C | 34% | 1011.4 hPa | - | - | - | - |
| 1777429726 | 26.67° C | 34% | 1011.1 hPa | - | - | - | - |
| 1777429126 | 25.56° C | 36% | 1011 hPa | - | - | - | - |
| 1777428526 | 25° C | 34% | 1010.9 hPa | - | - | - | - |
| 1777427926 | 25.56° C | 33% | 1010.8 hPa | - | - | - | - |
| 1777427326 | 26.67° C | 34% | 1010.6 hPa | - | - | - | - |
| 1777426726 | 25.56° C | 37% | 1010.7 hPa | - | - | - | - |
| 1777426126 | 25° C | 34% | 1010.9 hPa | - | - | - | - |
| 1777425526 | 25° C | 34% | 1010.8 hPa | - | - | - | - |
| 1777424926 | 26.67° C | 34% | 1010.9 hPa | - | - | - | - |
| 1777424326 | 26.11° C | 37% | 1010.9 hPa | - | - | - | - |
| 1777423726 | 25° C | 35% | 1011 hPa | - | - | - | - |
| 1777423126 | 25.56° C | 34% | 1011 hPa | - | - | - | - |
| 1777422526 | 26.11° C | 33% | 1011 hPa | - | - | - | - |
| 1777421926 | 26.67° C | 35% | 1011.1 hPa | - | - | - | - |
| 1777421326 | 25.56° C | 37% | 1011.1 hPa | - | - | - | - |
| 1777420726 | 25° C | 35% | 1011 hPa | - | - | - | - |
| 1777420126 | 26.11° C | 34% | 1011 hPa | - | - | - | - |
* Rain since midnight (hover to see other rain measurements)
** Current wind speed in m/s (hover to see current wind gust speed)